| time (UTC) | temp F | wind direction | speed knots | gust knots | rain 1hr in | rain 24hr in | rain mn in | humidity % | barometer mb |
| 20260504204943 | 77 | 188 | 3.5 | 18.2 | 0.00 | 0.00 | 0.00 | 46 | 1000.7 |
| 20260504203505 | 79 | 203 | 3.5 | 13.9 | 0.00 | 0.00 | 0.00 | 50 | 1000.7 |
| 20260504202025 | 77 | 193 | 3.5 | 17.4 | 0.00 | 0.00 | 0.00 | 47 | 1000.6 |
| 20260504200443 | 79 | 315 | 3.5 | 16.5 | 0.00 | 0.00 | 0.00 | 47 | 1000.8 |
| 20260504195005 | 79 | 245 | 3.5 | 13.9 | 0.00 | 0.00 | 0.00 | 48 | 1001.1 |
| 20260504193504 | 77 | 277 | 3.5 | 10.4 | 0.00 | 0.00 | 0.00 | 55 | 1001.5 |
| 20260504191943 | 78 | 298 | 3.5 | 12.2 | 0.00 | 0.00 | 0.00 | 48 | 1001.7 |
| 20260504190444 | 76 | 256 | 3.5 | 12.2 | 0.00 | 0.00 | 0.00 | 54 | 1002.0 |
| 20260504184943 | 77 | 131 | 2.6 | 12.2 | 0.00 | 0.00 | 0.00 | 56 | 1002.2 |
| 20260504183443 | 76 | 202 | 2.6 | 9.6 | 0.00 | 0.00 | 0.00 | 54 | 1002.4 |
| 20260504181944 | 75 | 223 | 2.6 | 10.4 | 0.00 | 0.00 | 0.00 | 55 | 1002.5 |
| 20260504180525 | 76 | 261 | 2.6 | 11.3 | 0.00 | 0.00 | 0.00 | 57 | 1002.6 |
| 20260504174944 | 74 | 205 | 2.6 | 13.9 | 0.00 | 0.00 | 0.00 | 57 | 1002.9 |
| 20260504173526 | 75 | 169 | 2.6 | 8.7 | 0.00 | 0.00 | 0.00 | 56 | 1002.9 |
| 20260504172004 | 74 | 340 | 2.6 | 13.9 | 0.00 | 0.00 | 0.00 | 53 | 1003.3 |
| 20260504170443 | 73 | 101 | 2.6 | 10.4 | 0.00 | 0.00 | 0.00 | 54 | 1003.6 |
| 20260504160443 | 72 | 173 | 2.6 | 10.4 | 0.00 | 0.00 | 0.00 | 50 | 1004.5 |
| 20260504150444 | 69 | 155 | 1.7 | 8.7 | 0.00 | 0.00 | 0.00 | 57 | 1005.1 |
| 20260504140443 | 65 | 181 | 1.7 | 5.2 | 0.00 | 0.00 | 0.00 | 66 | 1005.8 |
| 20260504130505 | 60 | 196 | 1.7 | 6.1 | 0.00 | 0.00 | 0.00 | 69 | 1006.3 |
| 20260504110444 | 49 | 171 | 1.7 | 3.5 | 0.00 | 0.00 | 0.00 | 83 | 1006.5 |
| 20260504100444 | 50 | 227 | 1.7 | 7.0 | 0.00 | 0.00 | 0.00 | 81 | 1006.2 |
| 20260504082005 | 49 | 178 | 2.6 | 4.3 | 0.00 | 0.00 | 0.00 | 82 | 1006.5 |
| 20260504080445 | 49 | 163 | 2.6 | 1.7 | 0.00 | 0.00 | 0.00 | 82 | 1006.6 |
| 20260504050506 | 52 | 173 | 3.5 | 7.0 | 0.00 | 0.00 | 0.00 | 77 | 1008.6 |
| 20260504044946 | 52 | 257 | 3.5 | 6.1 | 0.00 | 0.00 | 0.00 | 77 | 1008.7 |
| 20260504043444 | 52 | 263 | 3.5 | 6.1 | 0.00 | 0.00 | 0.00 | 76 | 1008.8 |
| 20260504041945 | 52 | 188 | 4.3 | 7.0 | 0.00 | 0.00 | 0.00 | 76 | 1008.9 |
| 20260504040526 | 52 | 248 | 3.5 | 5.2 | 0.00 | 0.00 | 0.00 | 76 | 1008.9 |
| 20260504035027 | 52 | 174 | 4.3 | 7.8 | 0.00 | 0.00 | 0.00 | 76 | 1009.0 |
| 20260504033445 | 52 | 151 | 4.3 | 8.7 | 0.00 | 0.00 | 0.00 | 75 | 1009.1 |
| 20260504031945 | 52 | 172 | 4.3 | 8.7 | 0.00 | 0.00 | 0.00 | 75 | 1009.0 |
| 20260504030445 | 52 | 228 | 4.3 | 7.8 | 0.00 | 0.00 | 0.00 | 75 | 1009.2 |
| 20260504024945 | 52 | 163 | 4.3 | 7.0 | 0.00 | 0.00 | 0.00 | 77 | 1009.3 |
| 20260504023445 | 52 | 182 | 4.3 | 7.0 | 0.00 | 0.00 | 0.00 | 78 | 1009.3 |
| 20260504021945 | 52 | 178 | 4.3 | 9.6 | 0.00 | 0.00 | 0.00 | 79 | 1009.2 |
| 20260504020445 | 52 | 157 | 4.3 | 8.7 | 0.00 | 0.00 | 0.00 | 80 | 1009.2 |
| 20260504015007 | 52 | 159 | 4.3 | 8.7 | 0.00 | 0.00 | 0.00 | 81 | 1009.2 |
| 20260504013445 | 52 | 163 | 4.3 | 6.1 | 0.00 | 0.00 | 0.00 | 81 | 1009.3 |
| 20260504012006 | 52 | 160 | 4.3 | 7.8 | 0.00 | 0.00 | 0.00 | 80 | 1009.5 |
| 20260504010507 | 52 | 169 | 4.3 | 7.0 | 0.00 | 0.00 | 0.00 | 80 | 1009.6 |
| 20260504004945 | 53 | 184 | 4.3 | 7.0 | 0.00 | 0.00 | 0.00 | 79 | 1009.6 |
| 20260504003445 | 53 | 157 | 4.3 | 8.7 | 0.00 | 0.00 | 0.00 | 78 | 1009.5 |
| 20260504002006 | 54 | 162 | 4.3 | 7.0 | 0.00 | 0.00 | 0.00 | 77 | 1009.6 |
| 20260504000507 | 54 | 215 | 4.3 | 7.0 | 0.00 | 0.00 | 0.00 | 76 | 1009.8 |
| 20260503234945 | 54 | 216 | 4.3 | 10.4 | 0.00 | 0.00 | 0.00 | 74 | 1010.0 |
| 20260503233445 | 55 | 171 | 4.3 | 9.6 | 0.00 | 0.00 | 0.00 | 72 | 1010.2 |
| 20260503231945 | 56 | 200 | 4.3 | 8.7 | 0.00 | 0.00 | 0.00 | 71 | 1010.6 |
| 20260503230507 | 56 | 230 | 4.3 | 10.4 | 0.00 | 0.00 | 0.00 | 70 | 1010.6 |
| 20260503224945 | 56 | 237 | 4.3 | 10.4 | 0.00 | 0.00 | 0.00 | 71 | 1010.7 |
| 20260503223506 | 55 | 181 | 4.3 | 13.0 | 0.00 | 0.00 | 0.00 | 70 | 1011.0 |
| 20260503221945 | 55 | 252 | 4.3 | 11.3 | 0.00 | 0.00 | 0.00 | 70 | 1011.3 |
| 20260503220506 | 54 | 192 | 4.3 | 12.2 | 0.00 | 0.00 | 0.00 | 71 | 1011.5 |
| 20260503214945 | 54 | 177 | 4.3 | 9.6 | 0.00 | 0.00 | 0.00 | 74 | 1011.5 |
| 20260503213446 | 52 | 279 | 4.3 | 8.7 | 0.00 | 0.00 | 0.00 | 77 | 1011.7 |
| 20260503212007 | 51 | 177 | 4.3 | 7.8 | 0.00 | 0.00 | 0.00 | 77 | 1012.0 |
| 20260503210445 | 51 | 164 | 4.3 | 8.7 | 0.00 | 0.00 | 0.00 | 76 | 1012.1 |